Sandy Bay Weather Center
Weather Center


NOAA NWS Hourly Roundups by Site

NOAA NWS Hourly Roundups by Site

Regional Weather Roundup for Boston, MA

To Select Another Site Choose from List
Select Site:  

000
ASUS41 KBOX 171910
RWRBOX

REGIONAL WEATHER ROUNDUP
NATIONAL WEATHER SERVICE BOSTON/NORTON MA
300 PM EDT WED APR 17 2024

NOTE:  "FAIR" INDICATES FEW OR NO CLOUDS BELOW 12,000 FEET WITH NO
SIGNIFICANT WEATHER AND/OR OBSTRUCTIONS TO VISIBILITY.

MAZALL-172000-
EASTERN MASSACHUSETTS

CITY           SKY/WX    TMP DP  RH WIND       PRES   REMARKS
BOSTON         NOT AVBL
BEVERLY        SUNNY     48  35  60 SE15      30.16F
LAWRENCE       SUNNY     58  35  42 SE9G23    30.14F
BEDFORD        SUNNY     58  36  43 E13       30.11F
NORWOOD        SUNNY     63  38  39 NE9       30.12F
MARSHFIELD     SUNNY     48  34  57 E9G15     30.17F
PLYMOUTH       SUNNY     56  35  45 SE8G17    30.14F
TAUNTON        SUNNY     62  39  42 MISG      30.13F
NEW BEDFORD    PTSUNNY   57  39  51 SE13      30.15F
$$

MAZALL-172000-
CAPE COD AND THE ISLANDS

CITY           SKY/WX    TMP DP  RH WIND       PRES   REMARKS
FALMOUTH       SUNNY     52  36  54 SE13      30.17F
HYANNIS        SUNNY     50  34  54 S9        30.16F
CHATHAM        SUNNY     48  33  56 E8        30.19F
PROVINCETOWN   SUNNY     49  35  58 E13       30.18F
NANTUCKET      MOSUNNY   51  36  56 E10       30.18F
MARTHAS VNYRD  MOSUNNY   51  37  58 S10       30.17F
$$

MAZALL-172000-
CENTRAL AND WESTERN MASSACHUSETTS

CITY           SKY/WX    TMP DP  RH WIND       PRES   REMARKS
WORCESTER      PTSUNNY   62  33  33 SW9       30.09F
FITCHBURG      SUNNY     66  35  31 SE9       30.09F
ORANGE         MOSUNNY   64  34  32 CALM      30.09F
SPRINGFIELD    NOT AVBL
WESTFIELD      PTSUNNY   62  35  36 S12       30.10F
NORTH ADAMS    CLOUDY    68  33  27 CALM      30.05F
PITTSFIELD     PTSUNNY   60  34  37 SW5       30.06F
$$

RIZALL-172000-
RHODE ISLAND

CITY           SKY/WX    TMP DP  RH WIND       PRES   REMARKS
PROVIDENCE     PTSUNNY   51  36  56 S15       30.16F
NEWPORT        CLOUDY    47  39  74 S12       30.16F
BLOCK ISLAND   CLOUDY    46  38  73 E12       30.17F
SMITHFIELD     PTSUNNY   58  38  47 SE7       30.13F
WESTERLY       CLOUDY    48  39  71 SE10      30.17F
$$

CTZALL-172000-
CONNECTICUT

CITY           SKY/WX    TMP DP  RH WIND       PRES   REMARKS
BRADLEY INTL   CLOUDY    63  35  35 S8        30.11F
HARTFORD       CLOUDY    58  37  45 S12       30.12F
PLAINVILLE     CLOUDY    59  34  39 S8        30.12F
BRIDGEPORT     CLOUDY    51  42  71 E15       30.14F
DANBURY        CLOUDY    57  35  43 SE8       30.13F
GROTON         CLOUDY    50  41  71 SE8       30.16F
NEW HAVEN      CLOUDY    53  40  61 SE9G24    30.15F
CHESTER        CLOUDY    52  32  46 SE9       30.15F
MERIDEN        CLOUDY    55  32  41 S13       30.13F
WILLIMANTIC    CLOUDY    57  35  43 S14       30.13F
OXFORD         CLOUDY    53  36  52 SE10G16   30.14F
$$

MEZ002-015-021-024-NHZ003-005-008-011-012-014-VTZ005-008-172000-
NORTHERN NEW ENGLAND

CITY           SKY/WX    TMP DP  RH WIND       PRES   REMARKS
PORTLAND ME    MOSUNNY   49  32  52 S15       30.15F
BANGOR ME      MOSUNNY   56  26  31 VRB5G16   30.11F
CONCORD NH     SUNNY     62  30  29 NW10G16   30.11F
MANCHESTER NH  PTSUNNY   64  33  31 N6        30.09F
NASHUA NH      SUNNY     63  35  35 SW5       30.11F
PORTSMOUTH NH  NOT AVBL
JAFFREY NH     SUNNY     64  31  28 N6        30.09F
KEENE NH       SUNNY     61  32  33 CALM      30.08F
BURLINGTON VT  PTSUNNY   50  29  44 NW9       30.16F
MT. WASHINGTON PTSUNNY   28  21  74 NW8         N/A  WCI  20
$$

NYZ052-076-172000-
EASTERN NEW YORK

CITY           SKY/WX    TMP DP  RH WIND       PRES   REMARKS
ALBANY         PTSUNNY   63  34  33 E3        30.08F
NEW YORK CITY  CLOUDY    54  42  64 E8        30.11F
$$

ANZALL-172000-
MARINE OBSERVATIONS

STATION/POSITION TIME  TEMP    WIND        PRES    VSBY  WAVE
                       AIR SEA DIR/SP/G                  HT/PER
                 (UTC) (F)     (DEG/KT/KT) (MB)    (MI)  (FT/S)
BOSTON BUOY      1850   44     110/ 12/ 14 1021.4F         2/ 9
BUZZARDS BAY     1800   45     140/ 14/ 14 1022.5F
NANTUCKET SOUND  1850   45 47  100/ 10/ 12 1021.6F         1/ 3
MASS BAY-STELLWA 1704   44 47  130/  8/ 10 1023.2F  1 7/8  3/ 8
ISLE OF SHOALS   1800   43     150/ 15/ 16 1021.2F
S OF BLOCK IS    1826      45                N/A           3/ 8
$$

......................KEY.........................
  SKY/WX - SKY CONDITION/PRESENT WEATHER
  TMP    - TEMPERATURE IN FAHRENHEIT
  DWPT   - DEWPOINT IN FAHRENHEIT
  RH     - RELATIVE HUMIDITY IN PERCENT
  WIND   - DIRECTION AND SPEED IN MPH
  PRES   - MEAN SEA LEVEL PRESSURE IN INCHES OF HG
  WCI    - WIND CHILL INDEX
  VSB    - VISIBILITY IN MILES
  HX     - HEAT INDEX
  TC     - TEMPERATURE IN CELSIUS
  VRB    - VARIABLE WIND DIRECTION
  N/A    - NOT AVAILABLE


 

View Past Reports for Boston, MA.

Products Courtesy of NOAA-NWS
NWS Information Parsing Script by Ken True at Saratoga Weather - Script by SE Lincoln Weather.

 



Copyright © Sandybay.net   ::   All rights reserved.